VE3BQM-WX Weather Reports


time (UTC)temp
F
wind
direction
speed
knots
gust
knots
rain 1hr
in
rain 24hr
in
rain mn
in
humidity
%
barometer
mb
20260506061804 42 0 0.0 0.0 0.00 0.02 0.00 86 981.0
20260506060905 42 0 0.0 0.0 0.00 0.02 0.00 85 981.1
20260506050904 41 0 0.0 0.0 0.00 0.17 0.00 84 981.3
20260506044506 41 0 0.0 0.0 0.00 0.17 0.00 83 981.4
20260506043605 40 0 0.0 0.0 0.00 0.17 0.00 83 981.3
20260506042705 40 0 0.0 0.0 0.00 0.17 0.00 82 981.1
20260506041803 40 0 0.0 0.0 0.00 0.17 0.00 81 981.0
20260506041117 40 0 0.0 0.0 0.00 0.17 0.00 81 981.1
20260506040005 40 0 0.0 0.0 0.00 0.17 0.00 80 981.0
20260506035616 40 0 0.0 0.0 0.00 0.17 0.00 80 981.0
20260506034505 41 0 0.0 0.0 0.00 0.17 0.00 79 981.2
20260506033605 42 0 0.0 0.0 0.00 0.17 0.00 78 981.1
20260506032703 42 0 0.0 0.0 0.00 0.17 0.00 77 981.0
20260506031805 42 0 0.0 0.0 0.00 0.17 0.00 77 981.0
20260506030905 42 0 0.0 0.0 0.00 0.17 0.00 76 981.1
20260506030005 42 0 0.0 0.0 0.00 0.17 0.00 75 981.2
20260506025616 42 0 0.0 0.0 0.00 0.17 0.00 75 981.0
20260506024505 42 67 0.0 1.7 0.00 0.17 0.00 75 981.0
20260506023605 42 67 0.0 3.5 0.00 0.17 0.00 74 981.0
20260506022706 42 95 0.0 1.7 0.00 0.17 0.00 75 981.0
20260506021803 42 105 0.0 3.5 0.00 0.17 0.00 74 981.0
20260506020904 42 360 0.0 1.7 0.00 0.17 0.00 73 981.0
20260506020006 43 360 0.0 3.5 0.00 0.17 0.00 72 981.1
20260506015617 42 360 0.0 3.5 0.00 0.17 0.00 72 981.3
20260506014714 42 22 0.0 1.7 0.00 0.17 0.00 71 981.1
20260506013608 43 0 0.0 0.0 0.00 0.17 0.00 70 981.0
20260506012919 42 0 0.0 0.0 0.00 0.17 0.00 69 981.0
20260506011806 42 0 0.0 0.0 0.00 0.17 0.00 68 980.8
20260506010903 43 0 0.0 0.0 0.00 0.17 0.00 66 980.6
20260506010004 43 225 0.0 3.5 0.00 0.17 0.00 64 980.4
20260506005405 43 204 0.0 3.5 0.00 0.17 0.00 64 980.3
20260506004720 43 127 0.9 3.5 0.00 0.17 0.00 62 980.3
20260506003603 44 123 0.0 1.7 0.00 0.17 0.00 61 980.0
20260506002706 44 124 0.9 2.6 0.00 0.17 0.00 60 980.2
20260506001805 44 135 0.0 6.1 0.00 0.17 0.00 60 980.0
20260506001114 44 133 0.9 7.0 0.00 0.17 0.00 59 979.9
20260506000006 45 130 1.7 7.0 0.00 0.17 0.00 58 979.8
20260505235404 45 130 2.6 7.0 0.00 0.17 0.00 57 979.8
20260505234503 46 127 2.6 7.0 0.00 0.17 0.00 57 979.6
20260505233603 46 131 3.5 7.0 0.00 0.17 0.00 58 979.7
20260505232705 46 127 2.6 7.0 0.00 0.17 0.00 58 979.6
20260505232013 46 131 2.6 7.0 0.00 0.17 0.00 58 979.7
20260505230905 47 124 1.7 7.0 0.00 0.17 0.00 59 979.7
20260505230004 49 129 1.7 7.8 0.00 0.17 0.00 59 979.6
20260505225405 51 130 1.7 5.2 0.00 0.17 0.17 58 979.6
20260505224505 53 107 1.7 6.1 0.00 0.17 0.17 55 979.7
20260505223606 54 77 1.7 3.5 0.00 0.17 0.17 50 979.5
20260505222703 55 93 0.0 4.3 0.00 0.17 0.17 52 979.7
20260505222013 56 350 0.0 4.3 0.00 0.17 0.17 50 979.8
20260505221115 54 261 2.6 6.1 0.00 0.17 0.17 48 979.8
20260505220213 53 66 3.5 6.1 0.00 0.17 0.17 50 979.8
20260505215405 53 46 1.7 5.2 0.00 0.17 0.17 51 979.7
20260505214717 53 44 1.7 5.2 0.00 0.17 0.17 50 979.6
20260505213608 54 320 1.7 7.0 0.00 0.17 0.17 50 979.7
20260505212705 54 74 1.7 7.8 0.00 0.17 0.17 49 979.7
20260505211803 54 19 2.6 8.7 0.00 0.17 0.17 49 979.6
20260505211116 54 334 0.9 5.2 0.00 0.17 0.17 51 979.5
20260505210003 54 9 6.1 8.7 0.00 0.17 0.17 48 979.6
20260505205615 55 346 2.6 7.0 0.00 0.17 0.17 48 979.3
20260505204506 55 113 0.9 7.0 0.00 0.17 0.17 50 979.3
20260505203605 56 356 1.7 8.7 0.00 0.17 0.17 48 979.3
20260505202706 57 69 1.7 9.6 0.00 0.17 0.17 46 979.2
20260505201805 57 94 1.7 9.6 0.00 0.17 0.17 47 979.1
20260505200903 57 100 1.7 8.7 0.00 0.17 0.17 46 979.3
20260505200005 56 308 2.6 13.0 0.00 0.17 0.17 47 979.1
20260505195616 56 294 1.7 13.0 0.00 0.17 0.17 48 979.1
20260505194503 56 319 5.2 13.0 0.00 0.17 0.17 44 978.8
20260505193608 57 320 3.5 8.7 0.00 0.17 0.17 44 978.8
20260505192706 56 344 0.9 7.0 0.00 0.17 0.17 46 978.9
20260505191806 57 90 2.6 7.8 0.00 0.17 0.17 47 978.9
20260505190905 58 336 1.7 9.6 0.00 0.17 0.17 46 979.0
20260505190005 56 20 6.1 9.6 0.00 0.17 0.17 45 978.9
20260505185405 56 70 3.5 9.6 0.00 0.17 0.17 49 978.8
20260505184504 55 90 2.6 8.7 0.00 0.17 0.17 45 978.5
20260505183605 55 308 3.5 12.2 0.00 0.17 0.17 45 978.8
20260505182703 55 302 4.3 12.2 0.00 0.17 0.17 48 978.6
20260505181803 54 28 3.5 9.6 0.00 0.17 0.17 49 978.7
20260505180905 54 342 1.7 7.8 0.00 0.17 0.17 53 978.4
20260505180005 53 46 1.7 13.0 0.00 0.17 0.17 53 978.5
20260505175406 53 37 6.1 13.0 0.00 0.17 0.17 54 978.7
20260505174506 54 295 2.6 12.2 0.00 0.17 0.17 55 978.3
20260505173603 54 343 2.6 7.8 0.00 0.17 0.17 54 978.3
20260505172704 53 63 3.5 7.8 0.00 0.17 0.17 56 978.2
20260505172016 52 20 2.6 7.0 0.00 0.17 0.17 59 978.3
20260505170906 49 324 2.6 8.7 0.00 0.17 0.17 65 978.2
20260505170005 48 333 3.5 11.3 0.00 0.17 0.17 65 978.3
20260505165403 48 301 1.7 11.3 0.00 0.17 0.17 66 978.3
20260505164505 48 315 3.5 7.0 0.00 0.17 0.17 66 978.1
20260505163605 48 47 1.7 8.7 0.00 0.17 0.17 66 978.0
20260505162704 49 328 3.5 7.8 0.00 0.17 0.17 65 978.0
20260505161806 49 21 2.6 8.7 0.00 0.17 0.17 65 977.9
20260505161119 49 280 1.7 8.7 0.00 0.17 0.17 63 977.9
20260505152703 53 76 2.6 7.8 0.00 0.17 0.17 55 977.9
20260505151805 54 166 1.7 11.3 0.00 0.17 0.17 57 977.1
20260505151120 52 343 5.2 11.3 0.00 0.17 0.17 58 977.0
20260505150217 52 4 0.9 9.6 0.00 0.17 0.17 59 977.0
20260505124505 46 249 1.7 7.0 0.00 0.17 0.17 87 975.1
20260505123605 46 310 1.7 6.1 0.00 0.17 0.17 89 974.8
20260505122703 45 292 1.7 4.3 0.00 0.17 0.17 90 974.6
20260505121805 45 304 0.9 5.2 0.00 0.17 0.17 91 974.4
20260505120906 45 40 2.6 6.1 0.00 0.17 0.17 91 974.4
20260505120004 45 309 1.7 6.1 0.00 0.17 0.17 93 974.3
20260505115405 45 289 0.9 5.2 0.00 0.17 0.17 96 974.2
20260505114503 45 310 2.6 5.2 0.00 0.17 0.17 96 973.8
20260505113603 45 289 0.9 4.3 0.00 0.17 0.17 97 973.8
20260505112913 45 307 2.6 4.3 0.00 0.17 0.17 97 973.5
20260505111806 45 251 0.0 3.5 0.00 0.17 0.17 99 973.1
20260505110904 45 299 0.0 3.5 0.00 0.17 0.17 99 972.9
20260505101803 45 226 1.7 3.5 0.00 0.17 0.17 99 972.0
20260505100905 45 316 0.0 3.5 0.00 0.17 0.17 99 972.0
20260505100005 45 317 0.0 3.5 0.00 0.17 0.17 99 972.0
20260505095403 45 331 0.0 4.3 0.00 0.17 0.17 99 971.8
20260505094505 45 333 0.9 4.3 0.00 0.17 0.17 99 971.7
20260505093817 45 307 0.0 3.5 0.00 0.17 0.17 99 971.3
20260505092705 45 27 1.7 5.2 0.00 0.17 0.17 99 971.2
20260505091806 46 345 0.9 7.0 0.00 0.17 0.17 99 971.2
20260505090903 46 85 0.9 3.5 0.00 0.17 0.17 99 970.9
20260505090006 47 325 1.7 6.1 0.00 0.17 0.17 99 970.7
20260505085618 47 319 2.6 7.0 0.00 0.17 0.17 99 970.5
20260505084506 47 303 0.9 4.3 0.00 0.17 0.17 99 970.5
20260505083604 48 336 0.0 5.2 0.00 0.17 0.17 99 970.3
20260505082705 49 330 0.0 3.5 0.00 0.17 0.17 99 970.3
20260505081804 50 269 1.7 4.3 0.00 0.17 0.17 99 970.2
20260505080904 51 310 1.7 5.2 0.00 0.17 0.17 99 969.9
20260505080007 51 293 1.7 6.1 0.01 0.17 0.17 99 970.1
20260505075405 52 316 2.6 4.3 0.02 0.17 0.17 99 970.0
20260505074503 52 330 1.7 7.0 0.02 0.17 0.17 99 970.1
20260505073606 52 329 0.9 7.0 0.02 0.17 0.17 99 970.1
20260505072703 52 354 0.0 2.6 0.02 0.17 0.17 99 970.0
20260505071805 52 331 1.7 7.8 0.02 0.17 0.17 99 970.1
20260505070906 53 340 4.3 7.8 0.02 0.17 0.17 99 970.6